Date,TemperatureHighF,TemperatureAvgF,TemperatureLowF,DewpointHighF,DewpointAvgF,DewpointLowF,HumidityHigh,HumidityAvg,HumidityLow,PressureMaxIn,PressureMinIn,WindSpeedMaxMPH,WindSpeedAvgMPH,GustSpeedMaxMPH,PrecipitationSumIn
2013-1-1,36,34,24,36,32,20,98,95,81,30.12,29.94,10,3,10,0.00
2013-1-2,40,27,19,27,21,16,91,80,57,30.24,29.97,6,1,6,0.00
2013-1-3,48,32,22,32,24,19,91,74,50,30.27,30.12,8,2,9,0.00
2013-1-4,49,35,24,30,24,18,91,65,42,30.33,30.12,9,2,9,0.00
2013-1-5,50,39,30,32,26,19,75,61,48,30.21,29.97,11,2,11,0.00
2013-1-6,51,38,29,30,24,14,83,59,40,30.27,30.09,16,4,16,0.00
2013-1-7,56,37,22,31,21,13,76,55,38,30.30,29.97,11,2,11,0.00
2013-1-8,61,44,29,40,29,20,78,56,41,30.12,29.97,11,2,11,0.00
2013-1-9,59,51,45,48,42,36,93,72,52,30.30,30.12,13,4,13,0.00
2013-1-10,54,48,44,54,46,38,98,93,63,30.24,29.68,14,4,14,0.42
2013-1-11,68,54,44,52,47,43,98,80,51,29.85,29.65,12,3,12,0.00
2013-1-12,58,49,34,54,46,33,98,90,72,29.85,29.65,17,4,17,1.20
2013-1-13,36,29,19,34,24,15,98,83,64,30.24,29.85,18,7,18,0.00
2013-1-14,37,23,14,20,14,10,87,70,48,30.36,30.18,12,3,12,0.00
2013-1-15,30,24,18,22,16,10,78,70,63,30.24,29.94,9,3,10,0.00
2013-1-16,49,32,18,27,20,14,87,64,41,30.03,29.88,9,2,9,0.04
2013-1-17,50,38,32,33,24,18,65,57,47,30.36,30.00,15,4,15,0.00
2013-1-18,62,41,24,34,24,18,82,54,31,30.42,30.06,14,3,14,0.00
2013-1-19,68,51,35,38,28,19,52,42,32,30.12,29.88,13,2,13,0.00
2013-1-20,60,46,34,33,27,15,74,49,34,30.21,30.03,8,2,9,0.00
2013-1-21,45,32,23,20,12,6,51,43,36,30.30,30.15,13,4,13,0.00
2013-1-22,37,28,20,16,10,5,57,47,41,30.33,30.15,12,2,12,0.00
2013-1-23,64,40,22,39,24,11,68,55,39,30.21,29.91,10,2,10,0.00
2013-1-24,42,33,28,26,14,9,55,45,41,30.27,30.06,15,6,15,0.00
2013-1-25,51,37,29,32,24,14,74,61,49,30.12,29.97,10,2,11,0.00
2013-1-26,62,45,30,33,28,24,86,56,34,30.24,30.03,12,3,12,0.00
2013-1-27,57,48,42,56,41,27,98,79,50,30.09,29.83,11,4,11,0.04
2013-1-28,75,66,57,63,60,55,96,80,56,29.91,29.83,15,4,16,0.00
2013-1-29,67,62,52,64,60,52,98,91,82,29.83,29.35,26,6,26,1.54
2013-1-30,53,39,29,52,32,19,98,78,63,29.94,29.41,29,10,29,0.04
2013-1-31,53,32,21,31,19,6,85,60,40,30.30,29.83,22,7,22,0.00